Theta_e
330 329 329 330 332 334 333 332 330 329 329 329 328 327 327 327 325 323 323 323 323 322 324 322 322 321 320 320 322 321 320 320 318 317 314 314 316 314 313 312 310 309 307 306 306 308 302 300 300 302 302 303 305 303 305 305 306 305 305 305 309 306 306
331 329 330 330 331 332 331 330 329 328 328 327 327 326 326 326 327 323 322 322 322 322 324 320 320 319 319 319 318 317 319 319 318 318 316 314 316 312 309 306 306 306 305 306 305 305 304 300 299 299 302 302 303 303 304 303 303 305 306 306 309 305 307
329 329 329 329 329 330 329 328 328 326 326 325 324 324 324 324 325 323 321 321 321 321 322 318 317 316 316 316 317 317 318 318 317 318 317 315 316 314 314 309 307 306 306 306 305 302 302 304 304 299 300 300 299 302 303 303 303 304 304 304 303 302 303
328 328 328 327 328 328 328 326 326 325 325 325 323 322 323 323 322 323 321 320 320 323 320 315 315 315 314 314 313 314 315 316 314 315 315 313 314 312 310 310 311 309 308 307 305 304 305 301 301 300 300 299 297 299 304 305 305 302 302 303 303 302 303
329 329 328 327 327 328 327 325 325 324 323 322 321 320 320 320 321 320 320 319 319 318 315 315 314 313 312 311 311 311 310 310 312 314 312 310 309 309 308 309 310 309 309 310 307 306 305 304 306 301 299 299 299 301 302 301 300 301 301 302 302 302 302
330 330 329 328 328 327 327 325 323 323 321 320 319 319 318 317 319 318 316 316 316 316 314 312 312 311 310 310 310 309 308 309 310 311 310 309 308 309 308 304 306 306 307 304 306 306 304 303 303 299 299 298 300 299 300 300 300 300 300 301 301 302 301
330 330 330 328 327 328 327 325 324 323 321 322 320 319 317 316 318 318 317 316 315 314 313 312 311 310 310 309 308 307 307 306 306 307 307 306 305 305 304 304 303 303 302 302 303 303 302 302 301 302 298 296 297 298 298 297 297 297 298 299 300 301 301
331 330 330 329 328 328 327 326 325 324 323 322 320 319 316 316 316 316 315 314 312 312 312 312 311 310 310 309 307 306 306 304 304 305 304 304 303 302 302 302 302 301 301 300 301 302 302 305 303 301 300 298 297 297 298 297 297 297 297 299 299 300 301
331 330 329 329 329 328 327 326 324 323 323 321 319 317 315 315 314 314 314 312 311 311 311 310 309 309 308 307 306 305 305 305 304 303 303 303 302 302 302 302 302 300 301 300 300 300 299 300 301 302 303 302 299 295 297 297 298 297 298 298 299 300 300
330 329 329 328 328 327 327 326 324 322 321 320 318 316 314 313 313 313 312 310 310 310 310 310 309 308 307 307 305 304 304 304 304 302 302 302 302 301 301 301 301 301 301 302 301 300 299 299 299 301 302 302 302 298 294 294 296 296 297 297 296 299 300
330 330 329 328 328 326 325 325 322 320 319 318 317 315 313 312 312 315 310 309 309 309 309 308 308 307 306 305 304 304 303 303 303 302 303 302 301 301 302 301 302 301 301 300 300 300 299 299 298 299 299 299 302 300 296 295 295 295 298 297 297 297 299
330 330 329 329 327 326 324 323 321 320 319 317 316 314 311 310 311 310 309 308 308 308 308 307 307 306 305 304 304 302 302 302 302 301 301 301 301 301 300 299 299 299 300 300 300 300 300 299 298 297 297 299 300 301 298 297 294 296 298 298 299 298 298
330 330 329 328 326 326 325 323 321 319 318 317 316 313 311 310 310 308 308 308 307 307 307 306 306 305 304 304 303 302 302 302 301 301 301 302 301 300 300 299 299 299 299 300 300 300 300 300 300 298 298 297 296 297 298 295 295 295 297 299 299 299 296
329 330 328 327 327 326 325 323 321 320 318 316 314 312 310 310 309 308 307 308 307 306 306 305 305 304 304 302 302 302 301 301 301 300 302 300 300 300 300 299 299 299 300 300 299 299 299 299 298 298 298 298 297 296 296 295 295 295 296 296 296 298 298
329 329 328 326 326 325 324 323 322 320 317 316 314 312 310 309 308 308 307 307 306 306 306 305 304 304 303 302 301 302 301 301 300 300 300 300 300 300 300 299 298 299 299 299 299 298 298 297 297 297 296 296 296 296 296 295 294 293 293 297 298 296 297
329 328 327 326 325 325 324 323 322 320 318 316 314 312 310 309 308 307 307 306 306 306 306 305 304 304 303 302 301 301 301 301 301 300 300 300 299 299 300 300 298 299 300 299 298 298 298 297 297 296 295 296 295 295 295 295 294 292 292 294 294 295 297
329 328 327 326 325 324 324 323 322 320 319 316 313 312 311 309 308 307 307 306 306 305 305 304 304 304 303 302 301 301 301 301 301 301 300 300 299 299 299 298 298 299 300 298 297 296 296 296 296 296 295 295 295 295 295 295 294 294 294 294 296 295 296
328 327 327 326 325 324 323 323 322 320 318 316 314 312 311 309 308 308 307 306 305 305 304 304 303 303 302 302 302 301 301 300 301 300 300 300 302 299 300 299 298 298 298 297 296 295 295 295 295 295 295 295 295 295 296 295 295 294 294 295 295 295 294
328 327 327 326 325 324 323 322 321 321 318 316 314 312 311 309 309 308 307 306 305 305 304 303 303 303 302 302 302 301 301 301 300 300 300 300 300 300 300 299 298 297 297 296 295 294 294 294 294 294 294 294 294 294 294 294 295 294 294 294 296 296 296
328 327 326 326 326 324 323 322 321 320 319 316 313 312 311 310 310 309 307 306 305 305 304 303 303 302 302 302 301 301 300 300 300 300 300 300 300 300 299 299 298 297 297 296 295 294 294 294 294 294 295 294 293 294 294 294 294 294 294 294 292 293 293
329 328 327 326 325 324 323 322 321 320 319 316 314 312 311 310 309 308 307 306 305 305 303 303 303 302 302 301 301 301 300 300 300 300 300 300 300 300 299 298 297 297 297 296 296 294 294 294 294 294 293 293 293 294 294 293 293 293 294 294 295 294 292
329 328 327 326 325 324 323 322 321 319 318 316 314 313 311 310 308 307 306 306 304 304 303 303 302 302 301 301 301 300 300 300 300 300 299 299 299 299 299 298 297 296 299 300 299 298 296 296 294 294 293 294 294 294 293 293 293 293 292 294 294 291 292
328 328 327 326 325 324 323 321 320 318 317 316 314 312 311 310 308 307 305 304 304 303 303 303 304 303 303 301 300 301 300 300 300 300 300 299 298 298 298 297 299 302 304 303 301 298 297 298 298 296 294 294 295 293 293 293 293 293 293 294 295 294 295
328 327 327 326 325 324 322 321 319 318 316 315 313 312 310 309 307 306 305 304 303 303 303 303 301 297 297 300 301 301 300 300 300 300 300 299 298 298 297 297 298 304 306 305 301 297 296 296 296 296 296 297 297 296 293 293 293 293 296 295 293 292 293
327 327 326 325 324 323 322 320 318 317 315 314 313 312 310 309 307 306 305 304 304 303 303 303 297 297 296 297 301 301 300 300 300 301 300 300 299 299 297 296 298 303 302 301 299 298 298 296 295 295 294 295 295 296 296 297 296 293 293 294 292 293 293
327 326 326 325 324 323 321 319 318 316 315 314 312 311 310 309 307 306 305 304 304 304 303 299 296 296 296 296 297 300 300 301 301 301 300 300 299 298 297 297 298 300 300 303 301 296 298 298 297 296 295 296 295 294 292 292 295 298 295 294 294 293 293
327 326 326 325 324 322 320 319 318 317 316 314 312 311 310 308 307 306 305 305 304 304 303 299 296 296 296 295 295 298 301 301 301 301 300 299 298 298 297 298 299 299 297 302 297 295 295 295 297 297 297 297 296 299 296 292 292 293 295 297 296 296 296
326 326 325 324 323 322 320 319 317 316 315 313 312 310 309 308 307 306 305 305 304 303 304 297 295 295 295 295 295 298 301 301 301 301 300 299 299 298 297 299 300 299 297 299 297 295 295 295 295 294 294 295 296 296 297 299 298 297 298 297 296 297 297
326 325 324 323 322 321 320 318 317 316 315 313 312 311 310 309 307 306 305 305 304 303 303 295 295 295 295 294 295 302 301 301 300 300 299 298 298 298 298 299 299 297 296 299 299 294 296 295 293 293 294 294 294 295 296 298 295 295 298 298 297 297 297
325 324 324 322 321 321 320 318 317 316 314 313 311 310 309 309 308 307 305 305 304 303 302 296 294 294 294 294 297 301 300 300 300 299 299 299 298 298 298 299 298 296 295 297 297 292 293 294 293 294 295 294 294 295 297 296 294 292 293 292 291 292 292
324 323 323 322 321 321 320 319 317 315 314 313 311 311 310 308 306 306 305 305 305 303 302 298 294 294 294 294 299 301 301 300 299 300 299 299 299 299 299 302 300 296 295 296 295 292 292 294 293 293 293 293 293 293 296 294 293 295 292 292 292 291 291
324 323 322 322 322 321 319 318 317 316 315 313 311 310 308 307 306 306 305 305 307 305 302 299 294 294 294 294 300 301 300 300 299 299 299 299 300 300 299 302 302 298 297 296 293 293 291 294 293 294 294 293 292 292 294 293 294 293 294 295 295 295 295
324 323 322 322 321 320 318 317 316 314 312 311 309 308 307 306 305 304 304 304 305 305 302 300 297 294 294 295 298 302 301 300 299 299 299 299 299 299 299 300 301 294 294 293 292 292 291 292 294 294 293 292 291 290 291 290 294 293 294 294 293 294 295
323 323 323 322 321 318 317 316 314 313 311 310 308 307 305 304 304 303 303 304 304 304 303 301 297 293 294 295 296 299 301 301 300 300 299 299 299 299 298 299 300 297 293 292 292 292 291 291 293 294 293 293 293 293 291 293 297 296 294 296 295 295 295
324 323 323 322 319 317 315 315 314 313 310 309 307 306 305 304 303 302 302 303 304 304 304 302 299 294 294 295 295 297 301 301 301 301 300 300 300 299 299 299 299 298 293 292 292 292 291 291 291 296 294 291 290 289 293 294 294 294 293 294 293 293 294
322 324 322 319 317 312 311 313 313 311 309 307 306 305 305 304 303 301 301 302 303 303 303 302 298 297 294 294 295 296 297 299 296 302 301 300 300 300 300 300 300 298 293 292 292 292 291 290 291 294 291 289 289 289 293 293 293 292 293 293 293 294 293
323 323 320 316 313 309 310 311 311 310 309 307 305 304 304 303 302 301 301 301 301 301 302 302 297 296 296 293 294 295 295 295 296 301 302 301 301 300 299 299 298 295 293 292 292 291 291 291 292 291 290 289 289 290 294 292 291 292 292 291 292 292 293
Wind_Speed
10 8 7 7 6 7 8 8 6 6 6 6 7 6 7 7 6 6 6 6 6 6 6 6 7 6 5 4 6 7 5 6 7 8 8 6 8 4 2 2 4 4 3 2 6 6 5 5 4 1 3 2 1 2 2 1 1 3 2 2 3 4 3
7 7 7 7 8 7 8 6 7 7 6 6 7 8 7 7 6 7 6 6 6 6 5 5 5 6 7 7 6 6 7 6 6 5 6 7 6 6 5 2 4 3 3 3 3 3 4 4 1 4 4 1 1 2 0 2 2 2 1 2 3 3 4
6 7 8 8 8 8 8 8 7 7 6 6 5 6 7 7 7 6 7 7 6 6 5 5 5 5 5 5 6 7 7 7 5 6 7 6 7 6 6 7 5 3 3 3 2 3 4 2 5 6 6 7 6 3 3 3 3 3 4 4 5 4 4
10 10 9 8 8 8 8 8 8 7 6 7 6 6 6 7 6 6 6 6 5 5 5 5 6 6 6 5 5 4 6 7 6 6 4 5 6 6 6 7 7 8 7 6 6 5 5 3 3 1 2 4 5 4 4 1 4 5 4 4 5 5 4
12 11 12 12 11 11 10 9 7 6 6 6 6 6 6 6 6 6 5 5 5 5 5 5 5 5 4 4 4 5 5 4 5 5 6 6 7 5 6 6 6 6 5 6 6 7 7 6 6 4 5 3 3 3 1 5 4 5 5 5 4 4 4
12 12 12 12 11 11 10 9 8 8 7 7 7 7 6 7 6 6 6 6 5 5 5 5 5 5 5 5 5 5 5 6 6 7 7 7 8 8 7 4 4 5 6 3 5 6 4 4 6 5 1 0 4 3 1 1 3 1 2 4 4 4 4
11 11 11 11 11 10 10 10 10 10 10 10 9 9 7 7 6 6 7 6 5 6 6 6 5 5 5 5 5 6 6 4 5 6 6 6 5 4 5 5 4 5 4 4 5 6 6 6 5 7 5 3 2 4 1 2 1 2 1 1 2 3 4
11 10 10 9 11 11 9 10 9 8 9 8 9 7 7 7 6 6 6 6 6 6 6 6 5 5 4 4 4 5 4 4 5 5 5 7 6 6 5 5 5 3 4 4 4 5 6 7 7 7 8 7 4 3 3 2 1 2 1 2 0 3 4
10 9 9 9 10 10 11 10 10 9 8 7 7 8 7 8 8 7 6 6 6 6 6 6 6 5 5 5 4 4 5 2 6 6 5 5 6 6 6 5 6 4 3 3 3 3 3 3 5 6 7 8 9 3 1 3 1 1 0 2 0 2 4
12 13 12 11 11 9 9 9 9 8 7 7 7 7 8 7 7 8 7 7 6 6 6 6 5 5 5 5 5 5 6 4 5 6 5 6 5 6 5 6 6 5 4 4 4 3 3 3 3 5 5 8 8 8 6 5 4 3 1 1 2 1 4
12 11 11 11 10 9 8 7 7 8 9 8 8 7 8 8 7 7 8 7 7 7 7 6 6 6 6 5 5 4 5 6 6 4 4 6 6 5 6 6 5 6 4 5 5 4 4 4 4 4 4 3 6 9 6 7 5 2 2 1 0 1 2
11 11 10 11 10 11 11 9 10 9 8 8 8 8 8 8 8 7 7 8 7 7 6 6 6 6 6 6 5 5 5 6 6 6 4 5 5 6 7 7 5 6 4 5 5 5 4 5 5 4 3 4 4 6 8 6 5 3 1 1 1 2 1
12 12 11 12 11 12 11 11 10 10 10 9 9 10 9 9 8 8 7 7 7 7 7 6 6 6 5 5 6 6 5 6 7 7 6 4 5 6 7 7 6 6 4 5 5 5 5 5 4 5 4 4 3 4 7 6 5 5 3 2 2 3 1
13 11 12 12 12 11 11 10 10 10 9 9 9 10 9 9 9 9 9 8 8 8 7 7 6 6 6 6 5 6 6 6 7 6 6 6 4 6 7 7 6 5 4 7 5 5 5 5 6 5 4 5 5 3 6 6 6 6 1 1 2 2 2
12 11 13 12 12 11 11 11 10 9 11 10 10 11 10 9 8 9 9 8 8 8 7 8 7 6 7 7 6 5 6 7 7 7 6 7 5 5 6 8 6 5 4 7 6 6 5 5 5 6 5 4 5 4 2 5 4 4 4 0 1 1 2
13 14 14 12 12 12 11 11 10 11 11 10 9 10 10 10 10 9 9 9 8 8 8 8 7 7 7 8 8 6 6 7 8 8 7 7 7 6 7 7 6 5 5 7 5 5 5 6 5 6 4 4 5 4 4 4 5 4 6 2 1 2 2
15 14 15 13 14 12 11 11 10 11 10 10 11 8 9 10 10 10 9 8 8 9 8 8 7 7 9 9 8 8 7 7 7 7 8 8 7 7 8 7 6 6 6 8 6 5 4 5 6 5 5 4 5 5 5 5 4 5 3 4 1 1 1
15 16 15 13 14 13 12 11 10 11 10 10 10 10 8 9 10 10 9 9 10 10 10 9 9 8 7 7 9 8 8 7 7 7 7 8 7 7 7 7 7 6 7 8 5 6 5 7 5 6 5 4 5 4 5 5 5 4 6 5 2 1 1
16 17 15 14 14 14 12 11 11 10 12 12 11 10 11 10 10 11 10 10 10 9 9 9 9 9 9 8 7 7 7 7 7 7 7 7 7 7 7 8 7 7 7 8 6 5 5 7 6 6 6 4 4 5 6 5 5 5 5 4 3 2 2
15 15 14 13 13 13 13 13 13 12 11 12 12 11 10 11 9 10 10 10 9 9 9 9 8 8 8 8 8 8 7 7 7 6 6 7 7 7 7 7 7 6 7 7 8 7 7 6 6 7 6 6 4 6 5 4 4 4 4 4 1 1 1
14 14 13 12 13 14 14 14 13 12 11 12 12 12 12 12 10 9 9 9 9 9 9 8 8 8 8 8 8 8 8 8 7 6 6 6 6 6 7 7 7 7 7 7 8 7 7 7 6 7 5 5 5 6 5 4 4 4 4 3 2 2 0
12 13 13 13 13 13 13 14 13 12 12 11 10 11 11 11 11 9 8 8 9 8 9 8 8 8 8 8 7 8 8 8 8 8 7 6 6 6 6 6 6 6 6 7 9 8 7 7 8 7 5 5 6 6 5 4 4 4 3 3 2 1 0
13 13 14 14 13 13 12 12 12 13 12 11 11 10 10 10 11 12 11 9 8 8 7 6 9 13 11 9 8 7 7 8 8 8 8 7 6 5 7 7 6 9 9 10 10 9 9 8 7 8 9 7 7 6 5 5 4 3 3 4 3 3 1
14 15 14 13 12 13 12 12 12 12 12 11 12 11 11 11 10 10 11 11 10 8 7 7 14 14 14 14 10 8 8 8 8 8 8 8 8 7 5 5 6 7 8 8 8 10 9 9 8 8 10 8 6 8 7 5 4 4 4 4 3 2 2
14 15 14 14 14 13 12 12 12 12 12 12 11 11 12 12 11 10 9 10 10 9 8 10 16 15 15 15 12 9 8 8 8 8 8 8 8 7 7 6 5 4 6 7 7 7 7 8 8 8 8 8 8 7 6 5 5 4 4 4 3 3 3
15 14 14 14 13 12 12 12 12 13 14 12 11 11 12 11 11 11 11 12 10 9 8 13 16 16 15 16 15 11 8 8 8 8 8 8 8 8 7 6 6 4 5 10 7 7 7 6 5 5 5 5 5 6 7 5 4 5 7 5 5 4 6
15 15 14 13 12 13 13 13 13 11 12 13 13 12 12 13 12 13 12 12 12 11 10 13 17 17 16 16 15 12 8 9 8 9 9 8 7 8 8 8 7 6 4 5 6 7 6 6 5 4 3 4 4 5 5 7 7 6 6 5 6 5 6
15 14 14 14 14 13 13 12 13 11 10 12 13 13 14 13 12 13 13 12 10 10 9 16 18 18 17 17 16 12 8 8 8 8 7 8 8 9 9 8 8 8 8 7 7 8 7 7 7 5 5 5 5 4 4 5 5 6 5 4 5 6 4
14 14 13 13 14 15 14 14 14 11 9 9 9 10 11 11 13 14 13 12 11 10 9 17 18 18 18 17 17 9 9 9 8 8 8 7 7 8 8 8 8 8 8 9 9 12 9 7 7 7 6 5 4 3 4 2 2 4 5 6 6 6 5
13 14 15 13 13 14 13 12 11 10 12 11 12 12 12 12 11 13 14 13 13 10 9 16 19 19 18 19 14 8 8 8 8 8 8 8 8 8 7 7 8 7 8 8 9 12 10 9 7 7 7 6 4 4 5 2 2 3 6 7 6 7 8
14 12 13 15 15 13 12 11 12 11 12 12 12 12 11 7 4 6 10 12 13 12 10 14 19 18 19 19 14 10 8 9 8 8 8 7 7 7 8 13 9 8 8 8 11 13 13 10 7 7 6 6 5 5 6 4 2 1 1 3 6 7 8
14 13 12 13 14 14 13 12 11 12 12 10 10 9 9 10 9 9 10 10 9 11 10 12 17 18 19 19 14 11 10 8 9 8 8 7 6 6 6 9 12 9 9 9 14 13 13 11 7 7 7 6 6 6 7 6 5 4 1 1 3 3 5
13 15 15 14 10 10 9 10 11 10 8 9 11 10 9 9 9 8 8 9 11 11 11 11 15 19 19 19 18 12 9 9 9 9 8 7 6 6 6 6 8 11 12 12 13 14 14 13 9 7 6 6 6 7 5 5 5 4 4 3 3 3 5
14 14 14 14 13 11 10 12 11 10 10 9 9 8 9 8 8 8 9 9 9 9 10 12 14 19 20 20 19 15 9 10 9 9 8 8 8 8 7 6 5 10 12 10 11 13 14 14 11 7 7 6 8 5 6 5 5 5 3 2 2 2 3
15 14 12 11 11 10 9 11 13 13 10 10 12 12 12 11 11 9 6 7 8 9 8 13 13 17 19 20 19 17 11 10 10 9 8 8 7 7 8 8 7 10 14 13 12 13 14 14 13 7 9 10 6 7 7 4 4 3 2 1 1 2 2
13 11 11 11 11 10 10 11 12 12 12 11 12 13 12 11 10 8 7 6 5 7 7 9 15 15 17 19 19 17 16 12 13 10 9 9 9 9 8 8 7 11 14 15 14 14 14 15 11 9 11 8 8 9 6 4 3 3 2 1 1 4 4
15 12 12 10 11 12 12 13 13 12 12 12 11 11 10 10 10 11 10 8 6 6 7 8 10 16 15 18 17 17 15 14 14 10 9 9 8 8 8 8 8 12 13 15 15 15 15 13 10 14 11 10 10 8 5 4 3 3 2 2 3 4 5
Wind_Direction
195 173 159 149 150 151 154 160 155 163 165 165 157 161 163 165 164 165 162 159 160 165 158 169 179 185 169 173 186 194 179 181 175 174 185 174 179 185 126 101 70 81 50 61 148 166 154 166 224 320 304 320 152 141 207 239 32 65 12 357 17 29 25
176 152 144 147 152 157 153 151 159 166 165 163 165 164 166 166 168 164 161 158 159 166 167 164 171 175 183 174 170 175 184 189 188 179 161 184 186 170 138 85 95 76 59 53 98 83 137 132 229 185 179 353 9 260 39 75 71 107 72 49 65 55 41
154 144 150 156 159 159 157 160 166 165 161 160 163 166 163 169 165 160 163 165 167 162 153 167 162 177 191 188 187 187 183 184 189 171 178 178 192 175 180 155 141 116 81 78 43 91 44 73 165 194 189 169 183 241 40 58 69 70 80 73 64 45 38
164 154 155 159 159 162 163 167 172 169 163 163 161 170 173 164 160 161 163 166 157 156 148 155 176 183 189 186 174 164 174 176 175 167 151 163 177 169 173 172 178 174 176 177 188 194 152 140 90 138 179 181 170 142 50 27 91 74 76 65 59 46 30
168 168 170 170 171 171 170 173 165 150 158 153 159 161 172 166 156 155 153 148 153 147 162 167 166 169 157 148 152 159 153 143 146 157 160 157 168 172 184 192 192 188 182 182 184 174 178 192 171 161 151 127 70 52 59 80 54 73 61 56 51 48 33
176 173 174 172 173 173 172 166 165 166 154 157 174 172 182 170 158 150 154 155 155 164 154 149 150 150 154 155 156 149 151 161 171 167 172 183 173 178 190 187 172 181 198 189 152 171 163 131 138 118 48 54 148 136 43 110 98 21 33 61 46 34 36
180 178 179 174 176 175 172 171 175 173 174 178 173 181 169 165 165 166 163 164 155 147 146 146 145 153 155 153 152 147 154 155 145 159 160 149 151 144 140 150 169 172 172 169 162 149 156 142 151 148 137 52 65 115 30 62 30 114 211 49 39 36 43
179 180 180 176 173 174 173 171 178 170 172 180 174 154 158 164 161 157 160 152 149 147 137 136 131 137 136 117 121 123 118 136 133 132 136 146 147 151 149 148 140 136 153 157 155 173 165 177 162 156 141 125 58 42 55 53 34 46 218 281 30 36 46
178 176 176 178 181 173 168 173 175 174 176 163 149 155 162 160 159 158 154 152 146 143 140 139 145 144 143 130 118 125 119 122 128 127 133 131 136 143 134 129 117 125 133 137 130 135 155 153 149 158 155 152 145 144 39 125 350 129 146 112 146 54 38
180 182 181 178 174 168 169 171 169 170 158 157 156 159 157 161 159 158 154 149 149 143 138 142 144 143 141 136 137 136 128 123 113 128 135 132 132 129 119 129 121 125 118 104 94 99 115 112 140 162 171 165 161 142 163 174 201 174 129 21 114 346 31
182 181 177 174 168 161 165 162 150 153 170 166 159 160 157 156 158 156 149 149 144 141 143 140 141 141 133 122 130 121 127 127 113 103 121 129 131 122 114 103 113 109 112 98 97 94 89 99 108 139 140 139 156 156 161 165 186 210 119 20 173 332 343
181 178 174 170 167 167 167 166 167 169 156 155 153 153 156 159 158 152 149 143 143 141 136 143 142 141 138 126 127 124 130 129 127 126 134 129 137 126 121 114 112 108 111 103 92 81 70 81 85 92 85 128 155 146 150 130 130 236 150 104 292 233 273
177 176 173 170 173 175 172 167 164 161 169 163 162 159 161 163 160 152 150 145 143 136 141 145 148 141 134 137 137 135 142 135 130 136 132 119 129 128 124 119 121 123 121 102 84 70 77 69 87 83 83 95 83 123 132 121 123 151 209 179 236 287 256
177 173 171 175 175 176 172 170 170 169 157 166 158 161 164 163 160 154 149 152 151 151 151 150 149 140 132 130 133 136 141 142 134 134 129 119 113 124 122 116 117 114 129 105 99 91 77 71 68 67 72 81 90 102 119 109 118 125 102 213 258 257 292
171 172 172 176 177 175 174 173 170 158 166 164 164 164 163 158 155 153 153 152 154 151 153 152 149 145 138 136 137 148 147 143 137 135 135 132 132 118 126 118 115 108 107 110 111 96 103 90 79 74 43 70 77 76 74 113 112 125 151 249 337 332 346
173 174 174 177 179 177 176 172 169 168 168 163 167 166 161 157 155 154 151 152 151 153 156 155 158 153 151 151 150 158 160 154 150 145 144 142 139 132 120 120 126 122 117 101 94 96 94 93 82 86 77 49 75 63 56 95 122 103 138 150 239 320 353
174 176 177 178 178 177 173 174 172 172 170 162 164 163 158 154 152 155 153 151 154 153 153 158 158 162 158 156 156 158 161 160 153 151 147 145 145 144 137 124 136 131 121 111 110 105 85 92 95 96 87 60 79 77 62 72 72 125 150 127 239 206 328
178 178 178 176 176 173 174 173 173 171 164 167 165 154 155 153 154 158 160 159 151 160 165 160 158 159 161 162 161 160 160 152 149 148 151 151 152 146 142 138 143 134 128 117 119 111 121 107 102 102 98 84 87 82 71 74 79 88 117 124 146 287 291
181 180 177 175 174 173 172 173 174 174 169 166 163 165 161 164 166 167 164 165 164 161 159 163 164 163 161 158 156 156 151 149 147 147 147 148 144 146 143 140 143 142 139 136 144 131 127 124 117 112 114 104 96 83 88 76 75 85 98 112 108 93 27
181 178 176 175 172 172 173 173 175 175 171 166 165 165 167 165 171 166 165 160 160 158 159 161 162 162 159 155 153 147 143 142 142 142 145 143 141 140 141 140 143 151 145 142 144 151 142 135 130 134 136 134 123 109 101 95 95 96 109 121 74 47 340
177 176 174 173 175 176 174 173 176 171 166 167 169 168 167 171 166 164 161 163 160 155 154 157 161 161 158 157 152 152 150 146 142 139 137 136 136 141 145 148 149 157 154 153 148 152 149 144 133 129 139 125 132 117 118 118 107 117 118 103 102 128 345
173 171 171 174 177 179 180 174 169 166 169 169 170 171 168 162 156 156 151 153 153 155 158 164 165 161 156 158 155 151 152 149 149 146 139 133 133 138 143 151 157 158 163 161 161 157 166 154 145 144 164 147 138 126 119 120 127 119 114 113 117 76 93
172 170 172 177 179 177 175 171 166 164 169 168 165 162 163 164 162 159 156 156 156 158 165 164 170 166 163 158 157 152 150 153 155 152 145 136 137 145 157 156 168 172 167 161 157 159 161 167 162 154 158 159 146 136 140 140 148 150 138 145 162 159 111
171 174 176 176 176 175 174 169 168 166 164 165 165 164 164 164 162 160 160 158 163 168 167 173 170 167 162 156 153 156 157 159 159 155 151 151 151 157 159 164 168 176 170 159 155 161 163 163 157 149 156 168 163 152 149 151 164 164 164 161 154 151 182
173 175 173 177 176 175 170 168 167 167 164 165 170 166 167 170 163 157 159 165 168 170 172 173 167 168 163 161 160 159 159 158 163 164 160 158 156 156 159 162 180 175 153 159 151 154 160 160 161 163 172 181 187 180 169 157 157 164 183 159 166 206 166
174 173 176 175 173 170 169 171 170 169 172 168 159 168 173 163 163 163 164 166 171 173 174 170 168 167 165 165 163 157 161 158 157 155 157 158 155 151 149 167 168 168 161 160 146 148 153 149 145 163 179 206 218 215 214 208 172 167 161 155 169 193 201
174 175 173 172 171 172 171 176 176 181 173 162 167 170 170 174 171 167 168 169 175 176 172 170 168 168 168 167 165 158 157 156 156 158 160 162 164 161 164 172 165 153 165 153 148 154 157 148 147 146 189 214 230 237 222 223 215 176 173 176 170 191 221
173 173 173 172 173 175 176 175 175 175 175 169 166 172 176 179 179 170 169 173 169 171 177 167 170 169 169 167 165 159 158 157 158 163 165 166 170 168 177 177 168 163 164 168 166 168 161 160 157 168 178 200 222 227 224 213 193 184 191 194 199 214 209
171 170 174 176 174 176 178 178 177 171 166 169 175 169 177 189 177 171 170 167 167 173 170 167 170 169 167 166 164 164 160 157 162 165 171 174 173 174 174 175 169 168 172 175 181 176 171 156 156 162 178 189 218 228 238 233 227 201 200 192 197 209 219
173 174 171 174 181 179 178 178 172 166 167 173 174 176 182 189 187 176 167 167 169 171 165 173 171 168 167 166 165 161 160 159 166 170 174 176 175 171 178 183 174 169 177 186 174 173 168 158 164 170 179 185 191 201 214 222 252 240 227 223 232 241 250
170 174 174 178 181 185 180 171 166 168 174 175 181 184 177 168 167 175 165 166 172 168 170 175 172 168 166 170 164 155 161 164 171 175 172 177 176 176 187 189 179 172 176 187 173 181 168 167 173 176 176 177 190 210 224 218 282 268 289 238 242 251 260
168 171 183 187 182 180 177 173 168 172 179 172 171 162 156 157 167 174 178 169 160 164 164 171 171 167 169 170 165 161 163 168 169 175 171 177 181 175 186 197 186 175 180 187 179 179 175 179 181 177 180 171 195 211 221 189 186 179 215 316 245 305 291
176 177 181 180 181 179 164 156 166 171 153 160 166 166 160 160 158 164 162 163 175 172 162 168 176 171 171 172 168 164 171 166 174 176 181 171 166 188 188 192 190 186 194 189 180 180 181 186 184 181 152 176 189 224 210 182 185 159 167 209 240 247 253
178 186 183 178 173 168 165 166 164 158 161 165 151 133 128 133 142 160 179 176 169 175 172 167 177 174 174 175 173 164 174 177 177 175 176 179 182 182 186 188 193 191 198 196 190 187 186 192 192 170 183 188 201 203 141 163 172 176 181 204 277 280 297
180 183 184 172 164 163 165 162 163 166 169 159 152 152 155 154 160 165 165 173 172 169 168 172 166 180 178 177 174 171 172 186 180 172 174 184 182 186 185 186 190 190 190 194 195 195 195 195 192 178 197 206 172 151 158 161 144 141 175 160 285 302 308
183 184 178 168 157 145 152 161 167 167 163 156 157 159 160 157 151 145 153 166 167 159 165 178 172 176 183 178 180 180 179 179 178 173 177 184 189 189 182 184 187 181 186 193 196 197 199 197 186 203 205 184 172 170 142 140 149 156 167 188 323 287 289
183 185 176 153 141 143 161 168 167 169 165 159 158 158 158 154 151 159 167 162 156 162 171 175 183 177 176 181 181 182 184 182 173 184 181 191 186 178 177 184 190 187 189 193 195 197 200 188 191 205 193 176 167 166 154 151 171 183 170 194 256 265 269